Weather History for Westfield, MA

Change the Weather History Date:

Saturday, April 27, 2013

  Actual Average Record
Temperature  
Mean Temperature 50 °F -  
Max Temperature 68 °F 62 °F 79 °F (2011)
Min Temperature 35 °F 38 °F 27 °F (2002)
Degree Days  
Heating Degree Days 14    
Moisture  
Dew Point 32 °F    
Average Humidity 49    
Maximum Humidity 89    
Minimum Humidity 23    
Precipitation  
Precipitation 0.00 in - - ()
Sea Level Pressure  
Sea Level Pressure 30.36 in    
Wind  
Wind Speed 4 mph (East)    
Max Wind Speed 10 mph    
Max Gust Speed -    
Visibility 10 miles    
Events      
Averages and records for this station are not official NWS values.
T = Trace of Precipitation, MM = Missing Value Source: NWS Daily Summary

Daily Weather History Graph

Daily Weather History Graph

Search for Another Location

Airport:

Trip Planner

Search our weather history database for the weather conditions in past years. The results will help you decide how hot, cold, wet, or windy it might be!

Date:

Astronomy

Apr. 27, 2013 Rise Set
Actual Time 5:51 AM EDT 7:45 PM EDT
Civil Twilight 5:21 AM EDT 8:16 PM EDT
Nautical Twilight 4:44 AM EDT 8:53 PM EDT
Astronomical Twilight 4:05 AM EDT 9:33 PM EDT
Moon 10:14 PM EDT (4/27) 7:06 AM EDT (4/27)
Length of Visible Light 14h 54m
Length of Day
13h 54m
Waning Gibbous, 95% of the Moon is Illuminated
Apr 27
Waning Gibbous
May 2
Last Quarter
May 9
New
May 18
First Quarter
May 25
Full

Hourly Weather History & Observations

Time (EDT) Temp. Windchill Dew Point Humidity Pressure Visibility Wind Dir Wind Speed Gust Speed Precip Events Conditions
12:53 AM 46.0 °F 43.9 °F 28.0 °F 50% 30.42 in 10.0 mi NNW 4.6 mph - N/A   Clear
1:53 AM 43.0 °F - 30.0 °F 60% 30.42 in 10.0 mi Calm Calm - N/A   Clear
2:53 AM 39.9 °F - 30.0 °F 68% 30.40 in 10.0 mi Calm Calm - N/A   Clear
3:53 AM 37.0 °F 34.5 °F 28.9 °F 73% 30.40 in 10.0 mi NNW 3.5 mph - N/A   Clear
4:53 AM 35.1 °F - 30.0 °F 82% 30.41 in 10.0 mi Calm Calm - N/A   Clear
5:53 AM 35.1 °F - 30.9 °F 85% 30.42 in 10.0 mi Calm Calm - N/A   Clear
6:53 AM 36.0 °F - 33.1 °F 89% 30.42 in 10.0 mi Calm Calm - N/A   Clear
7:53 AM 45.0 °F - 32.0 °F 60% 30.42 in 10.0 mi Calm Calm - N/A   Clear
8:53 AM 51.1 °F - 33.1 °F 50% 30.42 in 10.0 mi NNE 4.6 mph - N/A   Clear
9:53 AM 55.9 °F - 34.0 °F 44% 30.41 in 10.0 mi NNE 5.8 mph - N/A   Clear
10:53 AM 59.0 °F - 34.0 °F 39% 30.40 in 10.0 mi NE 8.1 mph - N/A   Clear
11:53 AM 61.0 °F - 33.1 °F 35% 30.39 in 10.0 mi NE 10.4 mph - N/A   Clear
12:53 PM 63.0 °F - 28.9 °F 28% 30.37 in 10.0 mi NNE 9.2 mph - N/A   Clear
1:53 PM 64.0 °F - 30.9 °F 29% 30.34 in 10.0 mi Variable 6.9 mph - N/A   Clear
2:53 PM 66.0 °F - 30.0 °F 26% 30.32 in 10.0 mi Variable 3.5 mph - N/A   Clear
3:53 PM 66.9 °F - 28.9 °F 24% 30.29 in 10.0 mi East 8.1 mph - N/A   Clear
4:53 PM 66.9 °F - 28.9 °F 24% 30.27 in 10.0 mi Variable 4.6 mph - N/A   Clear
5:53 PM 66.9 °F - 28.0 °F 23% 30.27 in 10.0 mi Variable 3.5 mph - N/A   Partly Cloudy
6:53 PM 64.0 °F - 30.9 °F 29% 30.27 in 10.0 mi South 4.6 mph - N/A   Overcast
7:53 PM 62.1 °F - 33.1 °F 34% 30.27 in 10.0 mi South 3.5 mph - N/A   Overcast
8:53 PM 57.9 °F - 33.1 °F 39% 30.29 in 10.0 mi SSE 10.4 mph - N/A   Scattered Clouds
9:53 PM 55.0 °F - 37.0 °F 51% 30.31 in 10.0 mi SSE 6.9 mph - N/A   Clear
10:53 PM 53.1 °F - 39.0 °F 59% 30.32 in 10.0 mi SSE 5.8 mph - N/A   Mostly Cloudy
11:53 PM 53.1 °F - 41.0 °F 64% 30.32 in 10.0 mi SSE 3.5 mph - N/A   Overcast